Other Public Products
Issued by NWS Grand Forks, ND

Home | Current Version | Previous Version | Graphics & Text | Print | Product List | Glossary On
Versions: 1 2 3 4 5 6 7 8 9 10 11 12 13 14 15 16 17 18 19 20 21 22 23 24 25 26 27 28 29 30 31 32 33 34 35 36 37 38 39 40 41 42 43 44 45 46 47 48 49 50
000
FPUS83 KFGF 271010
OPUFGF
PRAIRIE TO PINES WEATHER ROUNDUP
NATIONAL WEATHER SERVICE EASTERN NORTH DAKOTA/GRAND FORKS ND
400 AM CST TUE JAN 27 2015

 **SATELLITE DATA USED TO AUGMENT SKY COVER AT AUTOMATED STATIONS**
 *****  WEATHER ACROSS EASTERN NORTH DAKOTA  *****

CITY           SKY/WX    TMP DP  RH WIND       PRES   REMARKS
GRAND FORKS    FOG       26  24  92 S7        30.04F VSB 1/2 WCI  18
GRAND FORKS AF CLOUDY    23  21  93 S6        30.03F FOG     WCI  16
GRAND CITY NWS NOT AVBL
BUXTON         NOT AVBL
DEVILS LAKE    PTCLDY    21  18  86 SE7       29.96S WCI  13
FARGO          CLOUDY    28  25  88 E5        30.06S FOG     WCI  23
WAHPETON ARPT  CLOUDY    28  27  93 E3        30.06S
$$

 *****  WEATHER ACROSS CENTRAL AND WESTERN NORTH DAKOTA  *****

CITY           SKY/WX    TMP DP  RH WIND       PRES   REMARKS
JAMESTOWN      PTCLDY    26  24  92 S7        29.98S WCI  18
BISMARCK       CLEAR     30  28  92 E8        29.93F WCI  22
MINOT          CLEAR     31  28  89 CALM      29.86F
MINOT AFB      CLEAR     28  28 100 SE7       29.86F WCI  21
GARRISON         N/A     29  28  96 E3        29.88F
WILLISTON      MOCLDY    27  25  92 CALM      29.84F
DICKINSON      PTCLDY    31  27  85 S6        29.84F
HETTINGER      PTCLDY    28  25  88 CALM      29.90S
$$

 *****  OTHER OBSERVATIONS NORTHEAST NORTH DAKOTA  *****

CITY           SKY/WX    TMP DP  RH WIND       PRES   REMARKS
WALHALLA         N/A     19  19 100 S5        29.98F WCI  13
LANGDON        CLOUDY    23  23 100 S10       29.94F WCI  12
CAVALIER       FOG       19  19 100 S7        30.01F VSB 3/4 WCI  10
GRAFTON        NOT AVBL
CANDO          FAIR      23  23 100 SE8       29.95F WCI  14
FORT TOTTEN      N/A     29  29  99 SE7       29.95S WCI  22
ROLLA          FAIR      28  28 100 S7        29.93F WCI  21
RUGBY          FAIR      28  28 100 S14       29.92F WCI  17
 ***** THE ABOVE OBSERVATIONS ARE NON NWS ARE NOT QUALITY
        CONTROLLED AND MAY MIS-REPORT RAIN FOR SNOW...
$$

 *****  OTHER OBSERVATIONS SOUTHEAST NORTH DAKOTA *****

CITY           SKY/WX    TMP DP  RH WIND       PRES   REMARKS
COOPERSTOWN    NOT AVBL
VALLEY CITY    FOG       23  23 100 S5        30.01R VSB 1/4 WCI  17
OAKES            N/A     27  27 100 SE6       30.01S WCI  20
GWINNER        PTSUNNY   28  30 100 SE6       30.03S WCI  22
SHEYENNE NWR     N/A     21  19  93 SE2       29.95S
BUFFALO        NOT AVBL
WYNDMERE         N/A     28  28 100 SE5         N/A  WCI  23
 ***** THE ABOVE OBSERVATIONS ARE NON NWS ARE NOT QUALITY
       CONTROLLED AND MAY MIS-REPORT RAIN FOR SNOW...
$$

  *****  WEATHER ACROSS NORTHERN MINNESOTA  *****

CITY           SKY/WX    TMP DP  RH WIND       PRES   REMARKS
FLAG ISLAND    NOT AVBL
WARROAD        FOG       21  18  86 S5        30.04S VSB 1/2 WCI  15
ROSEAU         HAZE      23  18  80 S6        30.03F VSB 1/2 WCI  16
HALLOCK        FOG       23  21  93 S10       30.02F VSB 1/4 WCI  12
THF RVR FALLS  CLOUDY    25  23  93 CALM      30.04S VSB 1/2
HALSTAD          N/A     26  25  95 SE2         N/A
FOSSTON        CLOUDY    25  23  93 CALM      30.04S FOG
BAUDETTE       CLOUDY    23  21  92 S3        30.03S
WASKISH        CLOUDY    25  23  93 CALM      30.04F
CROOKSTON      FOG       25  25 100 S6        30.06S VSB 1/2 WCI  18
$$
  *****  WEATHER ACROSS CENTRAL AND WEST MINNESOTA  *****

CITY           SKY/WX    TMP DP  RH WIND       PRES   REMARKS
BEMIDJI        CLOUDY    24  23  98 SE3       30.03F FOG
PARK RAPIDS    CLOUDY    27  24  89 CALM      30.03S
WADENA         CLOUDY    27  25  93 CALM      30.04S
DETROIT LAKES  FOG       27  27 100 CALM      30.04S VSB 1/2
MOORHEAD       CLOUDY    27  27 100 CALM      30.07S FOG
FERGUS FALLS   CLOUDY    27  27 100 E3        30.08S FOG
ELBOW LAKE     CLOUDY    27  27  99 CALM      30.05S
MORRIS MN      CLOUDY    28  28 100 CALM      30.05S FOG
STAPLES        CLOUDY    28  25  86 CALM      30.05S
WHEATON        PTCLDY    23  23 100 E3        30.08S FOG
$$
  *****  WEATHER ELSEWHERE ACROSS MINNESOTA  *****

CITY           SKY/WX    TMP DP  RH WIND       PRES   REMARKS
DULUTH         CLOUDY    26  21  81 N3        30.04R
INTRNTL FALLS  CLOUDY    23  20  88 CALM      30.05R
ELY            CLOUDY    21  19  93 CALM      30.04R
CLOQUET        CLOUDY    27  21  80 NW5       30.06R WCI  21
BRAINERD       CLOUDY    30  25  81 NE3       30.05R
HIBBING        CLOUDY    26  21  81 NW7       30.04R WCI  18
ALEXANDRIA     CLOUDY    28  26  92 N3        30.05R
SAINT CLOUD    CLOUDY    32  25  75 NE5       30.06R
MINNEAPOLIS    CLOUDY    33  25  72 NW6       30.07R
$$

  *****  WEATHER ACROSS SOUTH DAKOTA  *****

CITY           SKY/WX    TMP DP  RH WIND       PRES   REMARKS
SIOUX FALLS    CLEAR     26  24  92 CALM      30.04F
BROOKINGS      NOT AVBL
WATERTOWN      CLEAR     26  25  96 E3        30.01F
HURON          CLEAR     26  25  96 SE3       30.02F
SISSETON         N/A     28  28 100 S7        30.04S WCI  21
ABERDEEN       CLEAR     26  24  92 CALM      30.03R
MITCHELL       CLEAR     29  28  96 S3        30.04F
PIERRE         CLEAR     31  27  85 SE6       29.94F
MOBRIDGE       CLEAR     33  30  88 SE10      29.92F WCI  25
RAPID CITY     CLEAR     44  26  49 W9        29.95F
$$

  *****  SOME WEATHER IN NEARBY STATES *****

CITY           SKY/WX    TMP DP  RH WIND       PRES   REMARKS
GLASGOW MT     MOCLDY    33  30  88 SE7       29.83S
GREAT FALLS MT CLOUDY    52  27  38 S13       29.91S
CHEYENNE WY    PTCLDY    46  19  34 W12       30.17F
SCOTTSBLUFF NE PTCLDY    32  28  85 N5        30.08F
OMAHA NE       CLEAR     30  28  92 CALM      30.07F
DES MOINES IA  CLEAR     33  29  85 NW7       30.06S
DAVENPORT IA   CLOUDY    34  29  82 N9        30.00R
CHICAGO IL     CLOUDY    27  24  89 N3        29.97R
EAU CLAIRE WI  CLOUDY    27  22  81 NE7       30.06R WCI  19
LA CROSSE WI   CLOUDY    31  23  72 N9        30.06R WCI  23
$$

  *****  SOME NATIONAL WEATHER *****

CITY           SKY/WX    TMP DP  RH WIND       PRES   REMARKS
LA GUARDIA NY  LGT SNOW  21  17  84 N21G29    29.65F VSB 1   WCI   5
RALEIGH NC     FLURRIES  34  29  82 CALM      29.74R
ATLANTA GA     CLOUDY    33  28  81 W7        29.86F
NEW ORLEANS LA CLEAR     47  40  76 W7        30.07F
OKLAHOMA CITY  CLEAR     46  34  62 NW8       30.09F
ALBUQUERQUE NM PTCLDY    39  27  62 N3        30.34S
SALT LAKE CITY PTCLDY    31  29  92 CALM      30.18S
LOS ANGELES CA MOCLDY    55  53  93 CALM      30.12S
BOISE ID       FOG       29  29 100 CALM      30.12S VSB 1/4
SEATTLE WA     MOCLDY    51  48  89 CALM      29.99S
$$

*** WEATHER ACROSS MANITOBA...SASKATCHEWAN AND ONTARIO ***
                ***ONTARIO***

CITY           SKY/WX    TMP DP  RH WIND       PRES   REMARKS
GERALDTON      FLURRIES  12  10  92 SE2       30.07R
THUNDER BAY    FLURRIES  21  19  93 SW5       30.09R WCI  15
SIOUX LOOKOUT  FLURRIES  19  18  93 W3        30.02R
TORONTO        FLURRIES  10   3  72 N15       30.01R WCI  -6
BIG TROUT LK   CLOUDY    12  10  92 SW8       29.89F WCI   1
PICKLE LAKE    NOT AVBL
DRYDEN         CLOUDY    19  19 100 W5        30.02S WCI  13
KENORA         FOG       19  19 100 S6        30.01S VSB 1/4 WCI  11
$$
                *** MANITOBA***

CITY           SKY/WX    TMP DP  RH WIND       PRES   REMARKS
BRANDON        MOCLDY    21  19  93 NW6       29.90F WCI  14
DAUPHIN        MOCLDY    28  27  93 S6        29.85F WCI  22
ISLAND LAKE    FLURRIES  18  16  93 S8        29.87F WCI   7
PILOT MOUND      N/A     25  25 100 S8          N/A  WCI  16
THE PAS        CLEAR     10   9  92 S2        29.78S
THOMPSON       LGT SNOW  21  19  93 SW9       29.75R FOG     WCI  11
WINNIPEG       FOG       21  19  93 S14       30.00F VSB 1   WCI   8
LYNN LAKE      FLURRIES  16  12  86 NW21G29   29.76R WCI  -2
CHURCHILL      FLURRIES  14  12  92 NW13G20   29.62R WCI   0
GILLAM         FLURRIES  18  14  86 SW12      29.70S WCI   5
$$
                ***SASKATCHEWAN***

CITY           SKY/WX    TMP DP  RH WIND       PRES   REMARKS
ESTEVAN        CLEAR     30  28  93 S5        29.82F
KINDERSLEY     PTCLDY    28  27  93 CALM      29.76R
LLOYDMINSTER   CLOUDY    37  32  81 NE6       29.78R
PRINCE ALBERT  MOCLDY    28  27  93 W3        29.81S
REGINA         CLEAR     28  27  93 E9        29.80F WCI  20


USA.gov is the U.S. government's official web portal to all federal, state and local government web resources and services.